Location: Helstorf
(52.5868°N, 9.5862°E)
Time: 07:20:17
(UTC+00:00)

Cosmos 1536 - Pass Details

Date: 15 May 2026
Orbit: 482 x 500 km, 82.5° (Epoch: 5 June)

Event Time Altitude Azimuth Distance (km) Brightness Sun altitude
Rises 21:29:45 0° 351° (N) 2,571 7.7 -14.6°
Reaches altitude 10° 21:31:53 10° 356° (N) 1,687 6.4 -14.8°
Maximum altitude 21:35:32 59° 77° (ENE) 571 2.8 -15.0°
Enters shadow 21:37:08 30° 145° (SE) 903 3.3 -15.1°
